[[{"header":{"parameterUnit":"m.s-1","parameterCategory":1,"la1":30.2991,"la2":30.254,"lo1":-89.0895,"lo2":-89.0444,"dy":0.0017,"dx":0.0017,"nx":28,"ny":28,"refTime":"2023-04-25T21:00:00:Z","depth":0,"parameterNumber":2,"parameterNumberName":"U-component_of_WINDS"},"data":[0,0,0,0,0,0,0,0,0,0,0,0,0,0,0,0,0,0,0,0,0,0,0,0,0,0,0,0,0,0,0,0,0,0,0,0,0,0,0,0,0,0,0,0,0,0,0,0,0,0,0,0,0,0,0,0,0,0,-3.3557,-3.3557,0,-3.3505,-3.3504,-3.3504,-3.3398,-3.3396,-3.3394,-3.3392,-3.334,-3.334,-3.3341,0,0,0,0,0,0,0,0,0,0,0,0,0,-3.3569,-3.3569,-3.3557,-3.3557,-3.3556,-3.3505,-3.3504,-3.3504,-3.3398,-3.3396,-3.3393,-3.3391,-3.3339,-3.334,-3.3341,0,0,0,0,0,0,0,0,0,0,0,0,0,-3.3545,-3.3569,-3.3558,-3.3497,-3.3491,-3.3505,-3.3504,-3.3503,-3.3399,-3.3395,-3.3392,-3.3389,-3.3339,-3.334,-3.3341,-3.341,0,0,-3.3344,-3.3344,0,0,0,0,0,0,0,0,-3.3546,-3.3545,-3.3507,-3.3501,-3.3495,-3.3455,-3.3489,-3.3472,-3.3399,-3.3434,-3.3391,-3.3388,-3.3381,-3.3378,-3.3375,-3.3407,-3.3405,-3.3344,-3.3344,-3.3345,-3.3345,0,0,0,0,0,0,0,-3.3548,-3.3546,-3.3537,-3.3506,-3.3499,-3.3474,-3.3467,-3.3486,-3.3426,-3.3431,-3.3423,-3.3418,-3.3377,-3.3374,-3.3373,-3.3404,-3.3344,-3.3344,-3.3345,-3.3345,-3.3492,-3.3495,0,0,0,0,0,0,-3.3558,-3.3548,-3.3538,-3.3535,-3.3513,-3.3476,-3.3468,-3.3471,-3.3425,-3.3415,-3.3421,-3.3413,-3.3375,-3.3372,-3.3371,-3.3448,-3.3345,-3.3345,-3.3346,-3.3488,-3.3492,-3.3496,0,0,0,0,0,0,-3.3559,-3.3558,-3.354,-3.354,-3.3535,-3.3479,-3.3483,-3.3471,-3.3469,-3.3418,-3.3407,-3.3429,-3.3372,-3.337,-3.3401,-3.3445,-3.3346,-3.3347,-3.3484,-3.349,-3.3494,-3.3605,0,0,0,0,0,0,-3.356,-3.3559,-3.3584,-3.3541,-3.3536,-3.3571,-3.3486,-3.3473,-3.3471,-3.346,-3.3423,-3.3413,-3.3369,-3.34,-3.3402,-3.3445,-3.3347,-3.348,-3.3487,-3.3493,-3.3597,-3.3613,-3.3627,0,0,0,0,0,-3.356,-3.3618,-3.3586,-3.3585,-3.3566,-3.3574,-3.3571,-3.3518,-3.3475,-3.3499,-3.3467,-3.3415,-3.3441,-3.3404,-3.3405,-3.3449,-3.3477,-3.3485,-3.3492,-3.359,-3.361,-3.3626,0,0,0,0,0,0,-3.3668,-3.3611,-3.3575,-3.362,-3.3602,-3.3556,-3.3585,-3.3541,-3.3536,-3.3526,-3.3462,-3.3454,-3.3495,-3.3475,-3.3436,-3.3514,-3.3451,-3.3459,-3.3525,-3.3543,-3.3558,-3.3561,-3.3348,0,0,0,0,0,-3.3696,-3.3707,-3.3657,-3.3701,-3.3694,-3.3642,-3.3644,-3.3605,-3.3584,-3.3577,-3.3546,-3.3529,-3.3533,-3.3537,-3.3538,-3.3594,-3.3585,-3.3625,-3.364,-3.3652,-3.366,-3.3688,-3.3705,-3.3521,-3.3521,-3.3521,0,0,-3.3756,-3.3726,-3.3737,-3.3722,-3.3704,-3.3717,-3.3636,-3.3654,-3.3663,-3.3579,-3.3606,-3.3584,-3.3561,-3.3605,-3.3623,-3.359,-3.3709,-3.3662,-3.3672,-3.3673,-3.3698,-3.3715,-3.3731,-3.3526,-3.3525,-3.3524,0,0,-3.3871,-3.385,-3.3884,-3.3868,-3.3842,-3.3807,-3.3815,-3.3776,-3.3758,-3.3784,-3.3722,-3.3733,-3.3741,-3.3727,-3.3721,-3.3834,-3.3786,-3.3836,-3.3913,-3.3942,-3.3957,-3.3969,-3.4009,-3.4024,-3.3844,-3.3844,-3.3844,0,-3.3948,-3.3965,-3.3908,-3.3929,-3.3925,-3.385,-3.3885,-3.3872,-3.3848,-3.3848,-3.3811,-3.3821,-3.38,-3.384,-3.3867,-3.3865,-3.3873,-3.3839,-3.3959,-3.3971,-3.3982,-3.4019,-3.4034,-3.385,-3.385,-3.3849,-3.3848,0,-3.4061,-3.4074,-3.4105,-3.4083,-3.4083,-3.4111,-3.4059,-3.4066,-3.4028,-3.3997,-3.4026,-3.3999,-3.3993,-3.4,-3.3963,-3.4036,-3.4016,-3.3971,-3.3905,-3.4007,-3.4041,-3.4054,-3.3859,-3.3857,-3.3855,-3.3854,0,0,-3.424,-3.4188,-3.42,-3.419,-3.4156,-3.4165,-3.4191,-3.4185,-3.4192,-3.4179,-3.4199,-3.4209,-3.4167,-3.416,-3.4121,-3.4147,-3.4237,-3.4098,-3.4096,-3.4124,-3.4316,-3.4349,-3.4367,-3.4206,-3.4209,-3.4211,-3.4317,0,-3.4347,-3.4387,-3.4337,-3.4388,-3.4399,-3.4329,-3.4351,-3.4334,-3.4307,-3.4313,-3.4283,-3.4291,-3.4235,-3.4231,-3.4253,-3.4222,-3.4275,-3.4213,-3.4224,-3.4225,-3.4231,-3.4384,-3.442,-3.4522,-3.433,-3.4333,-3.4334,0,-3.4476,-3.4469,-3.4521,-3.4485,-3.4488,-3.4509,-3.45,-3.4507,-3.4486,-3.4464,-3.4458,-3.4412,-3.4436,-3.4374,-3.4406,-3.4365,-3.4367,-3.4353,-3.4356,-3.4354,-3.4285,-3.4386,-3.4553,-3.4568,-3.4354,-3.4353,-3.4351,0,-3.4602,-3.4605,-3.4636,-3.4629,-3.4588,-3.4605,-3.4589,-3.4565,-3.4565,-3.4558,-3.4557,-3.4554,-3.4551,-3.455,-3.4504,-3.4463,-3.4542,-3.4476,-3.4525,-3.4527,-3.4544,-3.4543,-3.4713,-3.4547,-3.4547,-3.4546,-3.4546,0,-3.4726,-3.476,-3.4692,-3.4711,-3.4748,-3.4691,-3.473,-3.4707,-3.4686,-3.4701,-3.4641,-3.4656,-3.4595,-3.4604,-3.4568,-3.46,-3.46,-3.4584,-3.4574,-3.4588,-3.459,-3.4588,-3.4579,-3.455,-3.455,-3.4549,-3.4548,0,-3.4871,-3.4827,-3.4856,-3.4815,-3.4806,-3.4835,-3.48,-3.4817,-3.4786,-3.4805,-3.4806,-3.4758,-3.4766,-3.472,-3.472,-3.4696,-3.4745,-3.4723,-3.4752,-3.4745,-3.4796,-3.4791,-3.4969,-3.4989,-3.4812,-3.4813,-3.4815,0,-3.4952,-3.4977,-3.4939,-3.4944,-3.4931,-3.494,-3.4939,-3.4885,-3.4888,-3.4867,-3.4887,-3.4889,-3.4888,-3.4903,-3.4869,-3.4868,-3.4845,-3.4908,-3.4845,-3.4859,-3.4846,-3.4845,-3.4847,-3.4921,-3.4923,-3.4925,-3.4926,0,-3.5102,-3.5079,-3.508,-3.5075,-3.5076,-3.5069,-3.5059,-3.5067,-3.5008,-3.5014,-3.5021,-3.502,-3.5019,-3.5023,-3.5015,-3.4999,-3.4954,-3.4946,-3.4958,-3.4972,-3.4988,-3.498,-3.4787,-3.4942,-3.4941,-3.4939,-3.4939,-3.4938,-3.5217,-3.5236,-3.5212,-3.5216,-3.5203,-3.5194,-3.5208,-3.5179,-3.5183,-3.5178,-3.5147,-3.5159,-3.5139,-3.5125,-3.5113,-3.5123,-3.5093,-3.511,-3.5113,-3.5118,-3.5127,-3.4987,-3.5122,-3.5121,-3.5121,-3.512,-3.512,0,-3.5363,-3.5344,-3.5349,-3.5335,-3.5339,-3.5296,-3.5282,-3.5288,-3.53,-3.5284,-3.5285,-3.5293,-3.5296,-3.5263,-3.5262,-3.5276,-3.5255,-3.5278,-3.5276,-3.5273,-3.5154,-3.5144,-3.5295,-3.5295,-3.5295,-3.5295,-3.5295,-3.5295,-3.5439,-3.5469,-3.5444,-3.5466,-3.5448,-3.5459,-3.5455,-3.5447,-3.5435,-3.5446,-3.5449,-3.5427,-3.5405,-3.5402,-3.5403,-3.5393,-3.5396,-3.5426,-3.5409,-3.5298,-3.5281,-3.5265,-3.5255,-3.5427,-3.5427,-3.5527,-3.5527,-3.5528]},{"header":{"parameterUnit":"m.s-1","parameterCategory":1,"la1":30.2991,"la2":30.254,"lo1":-89.0895,"lo2":-89.0444,"dy":0.0017,"dx":0.0017,"nx":28,"ny":28,"refTime":"2023-04-25T21:00:00:Z","depth":0,"parameterNumber":3,"parameterNumberName":"V-component_of_WINDS"},"data":[0,0,0,0,0,0,0,0,0,0,0,0,0,0,0,0,0,0,0,0,0,0,0,0,0,0,0,0,0,0,0,0,0,0,0,0,0,0,0,0,0,0,0,0,0,0,0,0,0,0,0,0,0,0,0,0,0,0,2.5849,2.585,0,2.5945,2.5947,2.5948,2.607,2.6072,2.6074,2.6075,2.6169,2.617,2.617,0,0,0,0,0,0,0,0,0,0,0,0,0,2.5767,2.5768,2.5849,2.585,2.5851,2.5945,2.5947,2.5948,2.6069,2.6072,2.6074,2.6076,2.6169,2.617,2.6171,0,0,0,0,0,0,0,0,0,0,0,0,0,2.5827,2.5768,2.5849,2.5923,2.5931,2.5945,2.5947,2.5948,2.6069,2.6072,2.6075,2.6077,2.6169,2.617,2.6171,2.6118,0,0,2.6174,2.6174,0,0,0,0,0,0,0,0,2.5823,2.5829,2.5911,2.5918,2.5927,2.5999,2.5952,2.6005,2.6068,2.6016,2.6076,2.6079,2.611,2.6116,2.6127,2.6122,2.6126,2.6174,2.6174,2.6175,2.6175,0,0,0,0,0,0,0,2.5819,2.5826,2.5887,2.5912,2.5922,2.5951,2.5963,2.5963,2.6045,2.6021,2.603,2.604,2.6115,2.6126,2.613,2.6127,2.6174,2.6175,2.6175,2.6176,2.6086,2.6083,0,0,0,0,0,0,2.5804,2.5822,2.5884,2.589,2.5881,2.595,2.5963,2.5972,2.6045,2.606,2.6038,2.6045,2.6123,2.6129,2.6134,2.6078,2.6175,2.6176,2.6176,2.6089,2.6085,2.6082,0,0,0,0,0,0,2.5802,2.5808,2.588,2.5858,2.587,2.5948,2.5958,2.5973,2.5985,2.6058,2.6073,2.6034,2.6125,2.6133,2.6122,2.6083,2.6176,2.6177,2.6092,2.6087,2.6083,2.5965,0,0,0,0,0,0,2.5799,2.5807,2.5788,2.5857,2.587,2.5866,2.5955,2.5973,2.5986,2.5998,2.6059,2.6072,2.6128,2.6119,2.6123,2.6086,2.6178,2.6096,2.609,2.6085,2.5972,2.5957,2.5943,0,0,0,0,0,2.5795,2.5749,2.5786,2.5793,2.5849,2.5864,2.5872,2.5939,2.5983,2.5964,2.6012,2.607,2.6087,2.6117,2.6122,2.6085,2.6099,2.6092,2.6085,2.5979,2.596,2.5944,0,0,0,0,0,0,2.5671,2.5759,2.5802,2.5777,2.5812,2.5885,2.5863,2.5916,2.5939,2.5948,2.6029,2.6042,2.6021,2.6052,2.6084,2.6039,2.6101,2.6095,2.6019,2.6002,2.5987,2.598,2.6179,0,0,0,0,0,2.5641,2.5647,2.5724,2.5694,2.571,2.5783,2.5792,2.5842,2.5881,2.5896,2.5943,2.5977,2.5991,2.5998,2.6014,2.5978,2.5993,2.5955,2.594,2.5928,2.5922,2.5906,2.589,2.606,2.606,2.606,0,0,2.5578,2.5627,2.5626,2.567,2.5704,2.5708,2.5795,2.5795,2.5799,2.5896,2.5889,2.5924,2.5969,2.5945,2.5937,2.597,2.5878,2.5919,2.5909,2.591,2.5897,2.5881,2.5867,2.6055,2.6056,2.6057,0,0,2.5466,2.5504,2.5485,2.5517,2.5567,2.5617,2.5612,2.5677,2.5705,2.57,2.5774,2.5778,2.58,2.5829,2.5846,2.5748,2.5802,2.5751,2.5675,2.5658,2.5645,2.5634,2.5599,2.5586,2.5744,2.5744,2.5744,0,2.5382,2.5392,2.5467,2.5464,2.5481,2.5572,2.5553,2.558,2.5632,2.5641,2.5679,2.5709,2.5745,2.573,2.5706,2.5717,2.5714,2.5744,2.5641,2.5631,2.5621,2.5589,2.5576,2.5738,2.5738,2.5739,2.574,0,2.5286,2.5292,2.527,2.5321,2.5336,2.5324,2.5397,2.5403,2.5451,2.5497,2.5491,2.5538,2.5566,2.5566,2.5612,2.5558,2.5578,2.5627,2.5691,2.5597,2.5568,2.5557,2.5728,2.573,2.5732,2.5734,0,0,2.5097,2.5191,2.5182,2.5207,2.527,2.5276,2.5268,2.5298,2.5302,2.5335,2.5331,2.5349,2.5395,2.5415,2.5465,2.5451,2.5372,2.5503,2.5505,2.5477,2.5316,2.5279,2.5263,2.5408,2.5406,2.5405,2.5313,0,2.4997,2.4991,2.506,2.5035,2.5042,2.5129,2.5123,2.516,2.5203,2.5214,2.5261,2.5272,2.5333,2.5345,2.5335,2.5383,2.534,2.5391,2.5405,2.5404,2.5391,2.5249,2.5209,2.512,2.5302,2.53,2.5299,0,2.4879,2.4909,2.4885,2.4952,2.4957,2.495,2.4985,2.4994,2.5039,2.5071,2.5094,2.5153,2.515,2.5212,2.5209,2.5242,2.5252,2.5276,2.5275,2.5278,2.5345,2.5248,2.5093,2.5079,2.5282,2.5283,2.5284,0,2.4745,2.4778,2.477,2.4788,2.4865,2.4858,2.489,2.4938,2.4952,2.4981,2.4991,2.5018,2.5033,2.5053,2.5117,2.5156,2.5107,2.5174,2.5133,2.5131,2.5118,2.5118,2.4962,2.5124,2.5124,2.5124,2.5125,0,2.4626,2.4609,2.471,2.4704,2.4688,2.4766,2.4747,2.4787,2.4829,2.4832,2.4909,2.491,2.4995,2.5005,2.5055,2.5046,2.5052,2.5077,2.5091,2.507,2.5067,2.5078,2.5086,2.5121,2.5122,2.5122,2.5123,0,2.4473,2.454,2.4536,2.4611,2.4629,2.4613,2.4676,2.4674,2.4722,2.4725,2.473,2.4805,2.4821,2.4888,2.492,2.4954,2.4928,2.4954,2.4913,2.4922,2.4878,2.4881,2.4723,2.4706,2.4878,2.4876,2.4875,0,2.4393,2.4382,2.4456,2.4464,2.4493,2.4505,2.4521,2.4599,2.4612,2.4663,2.4654,2.4677,2.47,2.4722,2.4779,2.4804,2.4831,2.4774,2.4836,2.4816,2.4831,2.4831,2.4831,2.4761,2.4759,2.4757,2.4755,0,2.4244,2.4279,2.4299,2.4332,2.4349,2.4377,2.4411,2.4413,2.4499,2.451,2.4529,2.4547,2.4581,2.4603,2.4638,2.4669,2.4726,2.4736,2.4728,2.4707,2.4684,2.4697,2.4877,2.4739,2.4741,2.4742,2.4743,2.4743,2.4126,2.412,2.4172,2.4193,2.4227,2.4256,2.4258,2.4308,2.4326,2.4361,2.4405,2.4419,2.4465,2.4518,2.4546,2.4557,2.4589,2.4577,2.4574,2.457,2.456,2.4682,2.4564,2.4564,2.4565,2.4565,2.4566,0,2.3981,2.402,2.4038,2.4083,2.41,2.4154,2.4194,2.4204,2.4216,2.4255,2.4277,2.4299,2.4321,2.438,2.4408,2.4406,2.4433,2.4411,2.4412,2.4418,2.453,2.4534,2.4389,2.4389,2.4389,2.4389,2.4389,2.4389,2.3908,2.3903,2.3944,2.3956,2.3995,2.401,2.4028,2.4056,2.4088,2.411,2.413,2.417,2.4217,2.4249,2.4272,2.4289,2.4296,2.4265,2.429,2.4393,2.441,2.4426,2.4431,2.4266,2.4265,2.4178,2.4177,2.4176]}]]